Flag for Germany Weather past 2 weeks in Warstein, North Rhine-Westphalia, Germany

Now
55 °F

Sunny.


Feels Like: 52 °F
Forecast: 48 / 64 °F
Wind: 14 mph from Southwest

Location: Paderborn / Lippstadt

Current Time: Jun 2, 2015 at 7:45:01 AM

Latest Report: Jun 2, 2015 at 7:20 AM


Visibility: 10 mi

Pressure: 29.89 "Hg

Humidity: 63%

Dew point: 43 °F

Location of WarsteinLocation

Historic Weather in Warstein — Graph

°F

Warstein temperature yesterday

Maximum temperature yesterday: 61 °F (at 6:20 PM)
Minimum temperature yesterday: 45 °F (at 4:50 AM)
Average temperature yesterday: 54 °F

Past Weeks' High & Low Weather Summary

 TemperatureHumidityPressure
High68 °F (May 18, 3:50 PM)100% (May 29, 2:50 AM)30.33 "Hg (May 29, 2:50 AM)
Low41 °F (May 18, 6:20 AM)31% (May 19, 3:50 PM)29.62 "Hg (May 18, 9:20 PM)
Average52 °F67%30.01 "Hg
* Reported May 18 6:20 AM — Jun 2 6:50 AM, Warstein, Weather by CustomWeather, © 2015

Note: Actual official high and low records may vary slightly from our data, if they occured in-between our weather recording intervals... More about our weather records

Advertising

Warstein weather history for previous 24 hours

 ConditionsComfort  
Time TempWeatherWind HumidityBarometerVisibility
6:50 AM
Tue, Jun 2
54 °FSunny.13 mph67%29.89 "Hg10 mi
6:20 AM52 °FSunny.13 mph72%29.89 "Hg10 mi
5:20 AM52 °FClear.12 mph67%29.89 "Hg10 mi
4:50 AM52 °FClear.10 mph67%29.92 "Hg10 mi
4:20 AM52 °FClear.9 mph67%29.92 "Hg10 mi
3:50 AM52 °FClear.10 mph67%29.92 "Hg10 mi
3:20 AM50 °FClear.7 mph71%29.95 "Hg10 mi
2:20 AM52 °FClear.9 mph72%29.95 "Hg10 mi
1:50 AM50 °FClear.12 mph82%29.95 "Hg10 mi
1:20 AM50 °FClear.9 mph82%29.95 "Hg10 mi
12:50 AM50 °FClear.8 mph82%29.95 "Hg10 mi
12:20 AM52 °FClear.8 mph77%29.95 "Hg10 mi
11:50 PM
Mon, Jun 1
52 °FClear.8 mph77%29.95 "Hg10 mi
11:20 PM52 °FClear.5 mph77%29.98 "Hg10 mi
10:50 PM52 °FClear.7 mph77%29.98 "Hg10 mi
10:20 PM54 °FSunny.5 mph72%29.98 "Hg10 mi
9:50 PM54 °FSunny.7 mph72%29.98 "Hg10 mi
9:20 PM54 °FSunny.7 mph67%29.98 "Hg10 mi
8:50 PM55 °FSunny.5 mph59%29.98 "Hg10 mi
8:20 PM57 °FSunny.7 mph51%29.98 "Hg10 mi
7:50 PM59 °FPassing clouds.5 mph42%29.98 "HgN/A
7:20 PM59 °FPassing clouds.5 mph45%30.01 "HgN/A
6:50 PM61 °FPassing clouds.5 mph39%30.01 "HgN/A
6:20 PM61 °FPassing clouds.3 mph45%30.01 "HgN/A
5:50 PM59 °FPassing clouds.2 mph48%30.01 "HgN/A
5:20 PM57 °FPassing clouds.3 mph48%30.04 "HgN/A
4:50 PM57 °FPassing clouds.5 mph48%30.04 "HgN/A
4:20 PM59 °FPassing clouds.5 mph48%30.04 "HgN/A
3:50 PM57 °FPassing clouds.6 mph48%30.04 "HgN/A
3:20 PM57 °FPassing clouds.6 mph48%30.04 "HgN/A
2:50 PM55 °FPassing clouds.5 mph47%30.04 "HgN/A
2:20 PM55 °FPassing clouds.3 mph51%30.04 "HgN/A
1:50 PM55 °FScattered clouds.6 mph51%30.04 "HgN/A
1:20 PM55 °FScattered clouds.6 mph51%30.04 "HgN/A
12:50 PM54 °FScattered clouds.8 mph51%30.04 "HgN/A
12:20 PM54 °FScattered clouds.7 mph54%30.04 "HgN/A
11:50 AM54 °FScattered clouds.8 mph58%30.04 "HgN/A
11:20 AM54 °FScattered clouds.6 mph54%30.04 "HgN/A
10:50 AM52 °FPassing clouds.6 mph62%30.04 "HgN/A
10:20 AM52 °FPassing clouds.5 mph62%30.04 "HgN/A
9:50 AM52 °FPassing clouds.5 mph72%30.04 "HgN/A
9:20 AM50 °FPassing clouds.5 mph82%30.01 "HgN/A
8:50 AM48 °FPartly sunny.7 mph87%30.01 "HgN/A
8:20 AM48 °FPartly sunny.5 mph87%30.01 "HgN/A
7:50 AM48 °FPartly sunny.6 mph82%30.01 "HgN/A
7:20 AM46 °FPartly sunny.6 mph87%29.98 "HgN/A
Weather by CustomWeather, © 2015

See weather overviewHow to use our weather pages